Погода в Таразе

Погода в Таразе : погода сейчас, прогноз погоды и архив. Всё, что Вы хотите узнать о погоде в Таразе!

Поиск расширенной информации на нашем сайте:

Другие новости

Новости СМИ2

Главная страница сайта

Новости сайта

03.07.2017

Напоминаем, что на нашем специализированном сайте Метеоцентр.Азия вы можете получить высокодетализированные автоматические прогнозы погоды по пунктам России, СНГ и мира в авиационном формате (включающие направление и скорость ветра, видимость, явления погоды, количество и форму облачности, нижнюю и верхнюю границу облачности).

Рекомендуем: Тариф защита ddos.

Погода в Таразе - сегодня

Время (UTC), дата Ветер
(°,м/с) 
Видим.   Явления Облачность Т
(°С)
Тd
(°С)
f(%) Тe
(°С)
Pmin
(гПа)
dP
(гПа)
Po
(мм)
O2
(г/м3)
Тmin Tmax R s Состояние
почвы
15 19.02.18 210 (ЮЗ) 10 км    ясно 
-11.7 -13.7 85 -12  1030.4  -0.8  710  300    -6.6       
18 19.02.18 190 (Ю) 10 км    ясно 
-13.4 -15.4 85 -16  1029.2  -1.6  709  302    -6.6       
21 19.02.18 190 (Ю) 10 км    ясно 
-13.1 -15.8 80 -15  1026.8  -2.1  707  301           
00 20.02.18 190 (Ю) 10 км    ясно 
-11.9 -13.9 85 -12  1025.1  -1.2  707  299           
06 20.02.18 тихо ()   20000 м    10/0 верхняя 
[Ci sp]
-4.2 -9.7 65 -4  1019.2  -1.7  704  289  -13.8         
09 20.02.18 350 (С) 20000 м    10/0 средняя, верхняя 
[Ac lent|Ci sp]
-2.5 -8.5 63 -4  1016.6  -1.9  703  287           
12 20.02.18 тихо ()   20000 м    10/0 средняя 
[Ac As]
-3.6 -8 71 -4  1016.2  -0.7  702  287           
15 20.02.18 180 (Ю) 10 км    10/0 средняя 
[Ac As]
-3 -5.4 83 -3  1017.3  1.2  703  287    +0.6       
18 20.02.18 тихо ()   10 км    10/0 средняя 
[Ac As]
+2.8 -2.7 67 +3  1016.3  0.8  704  281    +0.6       
21 20.02.18 260 (З) 10 км    10/0 средняя, верхняя 
[Ac lent|Ci sp]
+4.7 -1.3 65 +3  1017.1  1.2  705  279           
03 21.02.18 230 (ЮЗ) 20000 м    10/10 1000 м 
[Sc diur, vesp]
+2 -1.1 80 -1  1023.6  2.8  709  283  -3      равномерный
сухой снег
100% 
09 21.02.18 230 (ЮЗ) 8{16}  20000 м    10/8 600 м кучево-дожд., средняя 
[Cb cap|Ac lent]
+3.2 +0.6 83 1024.5  1.7  710  282           
12 21.02.18 260 (З) 20000 м    10/10 600 м кучево-дожд. 
[Cb cap]
+3 +0.1 81 +2  1025.3  0.7  710  283           
15 21.02.18 210 (ЮЗ) 10 км    10/10 600 м кучево-дожд. 
[Cb cap]
+2 +0.4 89 +1  1026.3  0.7  711  284    +4.6       
18 21.02.18 260 (З) 10 км    10/10 600 м кучево-дожд. 
[Cb cap]
+1.9 +0.8 92 +3  1026.6  0.1  711  284    +4.6       
21 21.02.18 170 (Ю) 10 км    10/10 600 м кучево-дожд. 
[Cb cap]
+1.5 +0.7 94 +2  1026.8  0.1  711  285           
06 22.02.18 020 (С) 20000 м    3/0 верхняя 
[Ci fib]
+4.7 +0.3 73 +4  1024.5  -0.4  710  281  -0.2         
09 22.02.18 050 (СВ) 20000 м    4/0 верхняя 
[Ci fib]
+6.5 +0.4 65 +6  1022.6  -1.3  709  279           
12 22.02.18 040 (СВ) 20000 м    3/0 верхняя 
[Ci fib]
+4.9 -0.4 69 +4  1023.5  0.4  709  281           
15 22.02.18 тихо ()   10 км    3/0 верхняя 
[Ci fib]
+0.5 -1.5 86 +1  1025.4  0.6  710  285    +7.4       
18 22.02.18 230 (ЮЗ) 10 км    ясно 
-0.4 -1.9 90 1024.1  -1.5  708  286    +7.4       
21 22.02.18 220 (ЮЗ) 10 км    ясно 
-1.4 -2.5 92 -1  1022.6  -1.7  707  287           
00 23.02.18 220 (ЮЗ) 10 км    ясно 
-2.1 -3.3 91 -3  1021  -1.6  706  287           
06 23.02.18 230 (ЮЗ) 20000 м    8/0 верхняя 
[Ci fib]
+7.2 +0.6 63 +7  1016.7  -1.3  705  276  -2.3         
09 23.02.18 320 (СЗ) 20000 м    9/0 верхняя 
[Ci fib]
+9.6 +0.9 55 +10  1013.9  -1.6  703  274           
Время (UTC), дата Ветер
(°,м/с) 
Видим.   Явления Облачность Т
(°С)
Тd
(°С)
f(%) Тe
(°С)
Pmin
(гПа)
dP
(гПа)
Po
(мм)
O2
(г/м3)
Тmin Tmax R s Состояние
почвы

Для получения пояснительной информации подведите курсор к названию столбца.

ПОГОДА в Таразе - архив

Всё, что Вы хотите узнать о погоде в Таразе - удобно и подробно!

Выберите нужную дату (начиная с 1 января 2015* года) и нажмите кнопку "Найти".
Будут отображены архивные сводки погоды по пункту Тараз, начиная с указанной даты.


Отображать данные в формате CSV (для использования в таблицах Excel)


Внимание! Наш архив погоды предназначен исключительно для личного некоммерческого использования в познавательных целях. Если Вам необходимы официальные справки о состоянии погоды (для производственных, юридических, коммерческих и т.п. целей), обращайтесь в органы Росгидромета.

*Примечание: данная дата относится к архиву по метеостанциям СССР (Россия, СНГ, Балтия).
Архив по метеостанциям Зарубежной Европы и Азии (кроме Китая) хранится 10 дней, по другим регионам земного шара (Китай, Африка, Америка, Австралия, Океания) - 1 день.

Тараз - район местоположения метеостанции


Название, широта, долгота, высота метеостанции:
Тараз (город) 42.9°ш. 71.4°д. 651 м над ур. моря [Казахстан]

Дополнительная информация

В oтличие oт бoльшинства пoгoдных сайтoв мы публикуем пoдрoбную метеoинфoрмацию в детальнoм прoфессиoнальнoм фoрмате.

Характеристики температуры и влажнoсти вoздуха измеряются на высoте 2 м в тени вдали oт зданий и деревьев.
Скoрoсть ветра измеряется на высoте 10 м (на урoвне рoста челoвека скoрoсть ветра ниже в 1.5-2 раза). Если метеoстанция нахoдится в гoрoде или в лесу, тo скoрoсть ветра занижена на 2-4 м/с пo сравнению с oткрытым местoм. Скoрoсть ветра над акватoриями крупных рек и oзёр, а также на вершинах хoлмoв на 2-5 м/с выше, чем в oбычных услoвиях.
Атмoсфернoе давление в разных тoчках местнoсти мoжет значительнo oтличаться oт давления на метеoстанции, в зависимoсти oт услoвий рельефа (при пoдъёме на 10 м давление пoнижается примернo на 1 мм рт.ст.).